Home > Weather > Christchurch > Past weeks

Flag for New Zealand Past Weather in Christchurch, New Zealand — Yesterday and Last 2 Weeks

Now
45 °F

Drizzle. Overcast.


Feels Like: 35 °F
Forecast: 36 / 49 °F
Wind: 28 mph from Southwest

Location: Christchurch Airport

Current Time: Aug 27, 2016 at 8:08:08 AM

Latest Report: Aug 27, 2016 at 7:30 AM


Visibility: N/A

Pressure: 29.56 "Hg

Humidity: 87%

Dew Point: 41 °F

Location of ChristchurchLocation

Past Weather in Christchurch — Graph

°F

Christchurch Temperature Yesterday

Maximum temperature yesterday: 48 °F (at 12:00 AM)
Minimum temperature yesterday: 45 °F (at 1:00 AM)
Average temperature yesterday: 47 °F

High & Low Weather Summary for the Past Weeks

 TemperatureHumidityPressure
High64 °F (Aug 21, 1:00 PM)100% (Aug 13, 8:30 AM)30.42 "Hg (Aug 13, 8:30 AM)
Low28 °F (Aug 12, 7:30 AM)32% (Aug 21, 2:00 PM)29.39 "Hg (Aug 26, 3:30 PM)
Average46 °F86%30.02 "Hg
* Reported Aug 12 7:00 AM — Aug 27 7:00 AM, Christchurch, Weather by CustomWeather, © 2016

Note: Actual official high and low records may vary slightly from our data, if they occured in-between our weather recording intervals... More about our weather records

Advertising

Christchurch Weather History for the Previous 24 Hours

Scroll right to see more
 ConditionsComfort  
Time TempWeatherWind HumidityBarometerVisibility
7:00 AM
Sat, Aug 27
46 °FDrizzle. Overcast.25 mph82%29.56 "HgN/A
6:30 AM46 °FDrizzle. Partly sunny.28 mph82%29.53 "HgN/A
6:00 AM46 °FDrizzle. Mostly cloudy.25 mph82%29.50 "HgN/A
5:30 AM46 °FPassing clouds.25 mph82%29.50 "HgN/A
5:00 AM46 °FDrizzle. Mostly cloudy.23 mph82%29.47 "HgN/A
4:30 AM46 °FDrizzle. Mostly cloudy.21 mph82%29.47 "HgN/A
4:00 AM46 °FLight rain. Passing clouds.21 mph87%29.45 "HgN/A
3:30 AM46 °FPartly cloudy.17 mph87%29.45 "HgN/A
3:00 AM46 °FPartly cloudy.20 mph87%29.45 "HgN/A
2:30 AM46 °FPassing clouds.17 mph93%29.45 "HgN/A
2:00 AM46 °FPassing clouds.20 mph93%29.42 "HgN/A
1:30 AM46 °FPassing clouds.20 mph93%29.42 "HgN/A
1:00 AM48 °FScattered showers. Passing clouds.20 mph87%29.42 "HgN/A
12:30 AM48 °FScattered showers. Passing clouds.20 mph87%29.42 "HgN/A
12:00 AM48 °FScattered showers. Passing clouds.18 mph87%29.39 "HgN/A
11:30 PM
Fri, Aug 26
48 °FPassing clouds.20 mph87%29.39 "HgN/A
11:00 PM46 °FPassing clouds.18 mph93%29.39 "HgN/A
10:30 PM48 °FPassing clouds.15 mph87%29.39 "HgN/A
10:00 PM48 °FMostly cloudy.16 mph87%29.39 "HgN/A
9:30 PM48 °FPassing clouds.15 mph94%29.39 "HgN/A
9:00 PM46 °FPassing clouds.14 mph100%29.39 "HgN/A
8:30 PM46 °FLight rain. Passing clouds.14 mph100%29.39 "HgN/A
8:00 PM46 °FLight rain. Mostly cloudy.12 mph100%29.39 "Hg3 mi
7:30 PM48 °FLight rain. Mostly cloudy.12 mph94%29.39 "Hg3 mi
7:00 PM48 °FDrizzle. Mostly cloudy.10 mph94%29.39 "HgN/A
6:30 PM48 °FPassing clouds.10 mph94%29.39 "HgN/A
6:00 PM48 °FSprinkles. Passing clouds.13 mph94%29.39 "HgN/A
5:30 PM48 °FSprinkles. Partly cloudy.13 mph94%29.39 "HgN/A
5:00 PM48 °FLight rain. Overcast.13 mph94%29.39 "HgN/A
4:30 PM48 °FLight rain. Broken clouds.14 mph100%29.39 "HgN/A
4:00 PM48 °FLight rain. Partly sunny.10 mph100%29.39 "HgN/A
3:30 PM48 °FLight rain. Partly sunny.12 mph100%29.39 "HgN/A
3:00 PM48 °FLight rain. Partly sunny.12 mph100%29.42 "Hg6 mi
2:30 PM48 °FLight rain. Mostly cloudy.12 mph100%29.42 "HgN/A
2:00 PM48 °FRain. Cloudy.12 mph100%29.42 "Hg4 mi
1:30 PM48 °FLight rain. Mostly cloudy.10 mph100%29.42 "Hg2 mi
1:00 PM48 °FLight rain. Mostly cloudy.10 mph100%29.45 "Hg4 mi
12:30 PM48 °FLight rain. Partly sunny.10 mph100%29.47 "Hg4 mi
12:00 PM48 °FLight rain. Partly sunny.10 mph100%29.47 "Hg4 mi
11:30 AM46 °FRain. Low clouds.9 mph100%29.50 "Hg2 mi
11:00 AM48 °FSprinkles. Mostly cloudy.9 mph94%29.50 "Hg3 mi
10:30 AM48 °FScattered showers. Mostly cloudy.9 mph94%29.50 "HgN/A
10:00 AM48 °FSprinkles. Broken clouds.10 mph94%29.53 "HgN/A
9:30 AM48 °FMostly cloudy.10 mph94%29.53 "HgN/A
9:00 AM46 °FLight rain. Mostly cloudy.7 mph100%29.53 "Hg6 mi
8:30 AM46 °FLow clouds.6 mph100%29.56 "Hg5 mi
8:00 AM46 °FDrizzle. Low clouds.7 mph100%29.56 "Hg5 mi
Weather by CustomWeather, © 2016

See weather overviewHow to use our weather pages